[[{"header":{"parameterUnit":"m.s-1","parameterCategory":1,"la1":30.2991,"la2":30.254,"lo1":-89.0895,"lo2":-89.0444,"dy":0.0017,"dx":0.0017,"nx":28,"ny":28,"refTime":"2023-08-27T09:00:00:Z","depth":0,"parameterNumber":2,"parameterNumberName":"U-component_of_WINDS"},"data":[0,0,0,0,0,0,0,0,0,0,0,0,0,0,0,0,0,0,0,0,0,0,0,0,0,0,0,0,0,0,0,0,0,0,0,0,0,0,0,0,0,0,0,0,0,0,0,0,0,0,0,0,0,0,0,0,0,0,-0.6462,-0.6462,0,-0.6449,-0.6449,-0.6449,-0.6448,-0.6448,-0.6448,-0.6449,-0.6435,-0.6434,-0.6434,0,0,0,0,0,0,0,0,0,0,0,0,0,-0.6487,-0.6487,-0.6462,-0.6462,-0.6462,-0.6449,-0.6449,-0.6449,-0.6448,-0.6448,-0.6448,-0.6449,-0.6435,-0.6434,-0.6434,0,0,0,0,0,0,0,0,0,0,0,0,0,-0.6476,-0.6487,-0.6462,-0.646,-0.646,-0.6449,-0.6449,-0.6449,-0.6448,-0.6448,-0.6449,-0.6449,-0.6435,-0.6434,-0.6434,-0.6424,0,0,-0.6431,-0.6431,0,0,0,0,0,0,0,0,-0.6476,-0.6475,-0.6461,-0.646,-0.646,-0.6451,-0.6453,-0.644,-0.6448,-0.6453,-0.6449,-0.6449,-0.644,-0.6439,-0.6436,-0.6424,-0.6423,-0.6431,-0.6431,-0.643,-0.643,0,0,0,0,0,0,0,-0.6477,-0.6475,-0.6457,-0.646,-0.646,-0.646,-0.6458,-0.645,-0.6445,-0.6452,-0.6452,-0.6451,-0.644,-0.6436,-0.6435,-0.6423,-0.6431,-0.6431,-0.643,-0.643,-0.6402,-0.6402,0,0,0,0,0,0,-0.6478,-0.6476,-0.6458,-0.6457,-0.6469,-0.6459,-0.6458,-0.6453,-0.6445,-0.6444,-0.645,-0.6451,-0.6438,-0.6436,-0.6435,-0.6423,-0.643,-0.643,-0.6429,-0.6402,-0.6402,-0.6402,0,0,0,0,0,0,-0.6479,-0.6477,-0.6458,-0.6466,-0.6464,-0.6459,-0.6454,-0.6453,-0.645,-0.6444,-0.6443,-0.6448,-0.6438,-0.6436,-0.6427,-0.6423,-0.6429,-0.6429,-0.6403,-0.6402,-0.6402,-0.64,0,0,0,0,0,0,-0.648,-0.6477,-0.6473,-0.6466,-0.6463,-0.645,-0.6453,-0.6452,-0.6448,-0.6448,-0.6441,-0.644,-0.6438,-0.6428,-0.6426,-0.6422,-0.6428,-0.6403,-0.6403,-0.6402,-0.64,-0.64,-0.6399,0,0,0,0,0,-0.648,-0.6473,-0.6473,-0.6471,-0.6459,-0.645,-0.6449,-0.6446,-0.6448,-0.6444,-0.6441,-0.6441,-0.6424,-0.6427,-0.6425,-0.642,-0.6403,-0.6403,-0.6402,-0.6401,-0.64,-0.6399,0,0,0,0,0,0,-0.648,-0.6472,-0.6472,-0.6462,-0.6457,-0.645,-0.6445,-0.6445,-0.6439,-0.6439,-0.6436,-0.6434,-0.6425,-0.6422,-0.6426,-0.6411,-0.6414,-0.6413,-0.6413,-0.6412,-0.6412,-0.6413,-0.6427,0,0,0,0,0,-0.6479,-0.6472,-0.6466,-0.6458,-0.6455,-0.6451,-0.6447,-0.6445,-0.6439,-0.6437,-0.6433,-0.6427,-0.6421,-0.6416,-0.641,-0.64,-0.6398,-0.6396,-0.6395,-0.6394,-0.6393,-0.6388,-0.6387,-0.64,-0.64,-0.64,0,0,-0.6476,-0.6471,-0.6467,-0.6458,-0.6453,-0.6447,-0.6449,-0.6442,-0.6437,-0.6436,-0.6427,-0.6424,-0.6417,-0.6408,-0.6403,-0.6405,-0.6389,-0.6394,-0.6393,-0.6392,-0.6387,-0.6386,-0.6385,-0.6399,-0.64,-0.64,0,0,-0.6468,-0.6463,-0.6456,-0.6452,-0.6445,-0.6442,-0.644,-0.6434,-0.6431,-0.6422,-0.6422,-0.6416,-0.6405,-0.64,-0.6396,-0.6386,-0.6386,-0.6384,-0.638,-0.6375,-0.6374,-0.6373,-0.6369,-0.6368,-0.6383,-0.6383,-0.6383,0,-0.6465,-0.6455,-0.6453,-0.6445,-0.6441,-0.644,-0.6433,-0.6429,-0.642,-0.6418,-0.6419,-0.6405,-0.6401,-0.639,-0.6388,-0.6385,-0.6383,-0.6385,-0.6374,-0.6373,-0.6372,-0.6369,-0.6367,-0.6383,-0.6383,-0.6383,-0.6383,0,-0.6453,-0.6446,-0.6441,-0.6433,-0.6428,-0.6421,-0.6417,-0.6412,-0.6411,-0.6408,-0.6399,-0.6394,-0.6386,-0.6384,-0.6382,-0.6373,-0.6374,-0.6375,-0.6378,-0.6371,-0.6368,-0.6366,-0.6383,-0.6383,-0.6383,-0.6383,0,0,-0.6444,-0.6434,-0.6432,-0.6429,-0.6421,-0.6416,-0.6409,-0.6401,-0.6397,-0.6392,-0.6386,-0.6376,-0.6377,-0.6373,-0.6371,-0.6366,-0.6359,-0.6368,-0.6368,-0.6366,-0.6348,-0.6347,-0.6346,-0.6358,-0.6358,-0.6358,-0.6348,0,-0.6435,-0.6422,-0.6419,-0.6408,-0.6401,-0.64,-0.6394,-0.6389,-0.6386,-0.638,-0.6377,-0.637,-0.6372,-0.6369,-0.6364,-0.6361,-0.6355,-0.6361,-0.6353,-0.6352,-0.6354,-0.6344,-0.6343,-0.6334,-0.6347,-0.6347,-0.6347,0,-0.6423,-0.6416,-0.6405,-0.6398,-0.6395,-0.6389,-0.6382,-0.6377,-0.6371,-0.6369,-0.6364,-0.6363,-0.6355,-0.6359,-0.6348,-0.6353,-0.6349,-0.6347,-0.6346,-0.6345,-0.6349,-0.6343,-0.6331,-0.633,-0.6345,-0.6345,-0.6345,0,-0.6417,-0.6406,-0.6397,-0.6394,-0.6386,-0.6382,-0.6379,-0.6373,-0.6369,-0.6363,-0.636,-0.6353,-0.6349,-0.6344,-0.6341,-0.6344,-0.6331,-0.6334,-0.6329,-0.6329,-0.6326,-0.6327,-0.6314,-0.6324,-0.6324,-0.6324,-0.6324,0,-0.6408,-0.64,-0.6395,-0.639,-0.6382,-0.6378,-0.6371,-0.6367,-0.6362,-0.6356,-0.6355,-0.6349,-0.6346,-0.634,-0.6337,-0.6329,-0.6327,-0.6325,-0.6325,-0.6325,-0.6326,-0.6323,-0.6324,-0.6324,-0.6324,-0.6324,-0.6324,0,-0.64,-0.6396,-0.6387,-0.638,-0.6378,-0.6372,-0.6367,-0.6361,-0.6358,-0.6351,-0.6349,-0.6344,-0.6337,-0.6333,-0.6324,-0.6323,-0.6313,-0.6313,-0.6315,-0.6315,-0.6311,-0.6311,-0.6296,-0.6294,-0.6305,-0.6305,-0.6305,0,-0.6394,-0.6389,-0.6381,-0.6377,-0.6373,-0.6367,-0.6362,-0.6359,-0.6354,-0.6347,-0.6343,-0.6336,-0.633,-0.6318,-0.6314,-0.6307,-0.6307,-0.6302,-0.6306,-0.6307,-0.6307,-0.6307,-0.6307,-0.6301,-0.6301,-0.6301,-0.6301,0,-0.6384,-0.6382,-0.6376,-0.6369,-0.6364,-0.6358,-0.6352,-0.6349,-0.6345,-0.634,-0.6333,-0.6328,-0.6319,-0.6312,-0.6305,-0.6301,-0.63,-0.63,-0.6299,-0.6299,-0.6301,-0.63,-0.6314,-0.63,-0.63,-0.6301,-0.6301,-0.6301,-0.6377,-0.6372,-0.6366,-0.6359,-0.6354,-0.6349,-0.6344,-0.634,-0.6334,-0.6326,-0.6324,-0.6317,-0.6311,-0.6301,-0.6297,-0.6291,-0.6292,-0.629,-0.629,-0.6289,-0.6289,-0.6302,-0.629,-0.629,-0.629,-0.629,-0.629,0,-0.6367,-0.6363,-0.6356,-0.6348,-0.6343,-0.6343,-0.6336,-0.6332,-0.6325,-0.6319,-0.6314,-0.6305,-0.6298,-0.6293,-0.6286,-0.6282,-0.6282,-0.6281,-0.6281,-0.628,-0.6288,-0.629,-0.6281,-0.6281,-0.6281,-0.6281,-0.6281,-0.6281,-0.6361,-0.6353,-0.635,-0.6339,-0.6335,-0.6327,-0.6324,-0.6319,-0.6314,-0.6305,-0.6299,-0.6296,-0.6291,-0.6283,-0.6277,-0.6276,-0.6273,-0.6272,-0.627,-0.6278,-0.6279,-0.628,-0.6282,-0.6271,-0.6271,-0.6263,-0.6262,-0.6262]},{"header":{"parameterUnit":"m.s-1","parameterCategory":1,"la1":30.2991,"la2":30.254,"lo1":-89.0895,"lo2":-89.0444,"dy":0.0017,"dx":0.0017,"nx":28,"ny":28,"refTime":"2023-08-27T09:00:00:Z","depth":0,"parameterNumber":3,"parameterNumberName":"V-component_of_WINDS"},"data":[0,0,0,0,0,0,0,0,0,0,0,0,0,0,0,0,0,0,0,0,0,0,0,0,0,0,0,0,0,0,0,0,0,0,0,0,0,0,0,0,0,0,0,0,0,0,0,0,0,0,0,0,0,0,0,0,0,0,4.2351,4.2351,0,4.2355,4.2355,4.2355,4.2298,4.2296,4.2294,4.2293,4.2295,4.2297,4.2298,0,0,0,0,0,0,0,0,0,0,0,0,0,4.2293,4.2294,4.2351,4.2351,4.2351,4.2355,4.2355,4.2355,4.2298,4.2296,4.2294,4.2292,4.2295,4.2297,4.2298,0,0,0,0,0,0,0,0,0,0,0,0,0,4.231,4.2295,4.2351,4.2323,4.2321,4.2355,4.2355,4.2355,4.2298,4.2296,4.2294,4.2291,4.2294,4.2296,4.2299,4.236,0,0,4.2306,4.2307,0,0,0,0,0,0,0,0,4.2309,4.2312,4.2327,4.2325,4.2323,4.2324,4.2335,4.2357,4.2299,4.2307,4.2293,4.229,4.2306,4.2308,4.2313,4.236,4.236,4.2306,4.2307,4.2308,4.2309,0,0,0,0,0,0,0,4.2308,4.2311,4.2353,4.2328,4.2325,4.231,4.231,4.2339,4.232,4.2306,4.2302,4.2303,4.2305,4.2311,4.2313,4.236,4.2306,4.2308,4.2309,4.231,4.2457,4.246,0,0,0,0,0,0,4.231,4.2311,4.2353,4.2353,4.231,4.2313,4.2313,4.2326,4.2319,4.2316,4.2305,4.23,4.2309,4.231,4.2313,4.2385,4.2308,4.231,4.2312,4.2455,4.2458,4.2461,0,0,0,0,0,0,4.2309,4.2315,4.2352,4.2331,4.2334,4.2317,4.2331,4.2327,4.2334,4.2319,4.2315,4.2316,4.2307,4.231,4.2349,4.2384,4.2311,4.2313,4.2452,4.2456,4.2459,4.2529,0,0,0,0,0,0,4.2308,4.2315,4.2338,4.2332,4.2336,4.2389,4.2333,4.2329,4.2338,4.2332,4.2327,4.2324,4.2305,4.2346,4.2351,4.2386,4.2315,4.2449,4.2454,4.2458,4.2524,4.2535,4.2544,0,0,0,0,0,4.2306,4.2357,4.2339,4.2345,4.2365,4.2391,4.2393,4.2371,4.2341,4.2364,4.2355,4.2325,4.2379,4.235,4.2356,4.2392,4.2446,4.2452,4.2458,4.2519,4.2533,4.2544,0,0,0,0,0,0,4.2367,4.2355,4.2336,4.2386,4.239,4.2381,4.241,4.2386,4.2398,4.2392,4.2362,4.2362,4.2406,4.2402,4.237,4.2451,4.2408,4.2415,4.2452,4.2465,4.2475,4.2476,4.2317,0,0,0,0,0,4.2386,4.2409,4.2397,4.2443,4.2446,4.2428,4.2438,4.2421,4.2423,4.2425,4.2418,4.2421,4.2439,4.2452,4.2467,4.2522,4.2521,4.255,4.256,4.2569,4.2576,4.2606,4.2619,4.248,4.248,4.248,0,0,4.2426,4.2422,4.2439,4.2455,4.2456,4.2481,4.2429,4.2457,4.2475,4.2428,4.2466,4.2461,4.2463,4.2511,4.2531,4.2509,4.2614,4.2576,4.2583,4.2586,4.2613,4.2627,4.2638,4.2484,4.2483,4.2482,0,0,4.2511,4.2511,4.2549,4.2552,4.2554,4.2542,4.2551,4.2546,4.2542,4.2579,4.2545,4.2565,4.2596,4.26,4.2605,4.2693,4.2666,4.2699,4.2754,4.2784,4.2795,4.2804,4.2837,4.2849,4.2705,4.2706,4.2706,0,4.256,4.2596,4.2572,4.2602,4.2611,4.2571,4.261,4.2613,4.262,4.2627,4.2602,4.2641,4.2639,4.2688,4.271,4.2715,4.2726,4.27,4.2795,4.2804,4.2813,4.2844,4.2856,4.271,4.2709,4.2709,4.2708,0,4.2657,4.2683,4.2713,4.2723,4.2735,4.2769,4.275,4.2765,4.2746,4.2736,4.2775,4.2771,4.2786,4.2796,4.2778,4.2843,4.2829,4.28,4.2756,4.2831,4.2859,4.2871,4.2715,4.2714,4.2713,4.2712,0,0,4.2781,4.2777,4.2789,4.2794,4.2794,4.2813,4.2846,4.2861,4.2875,4.2881,4.2909,4.2936,4.291,4.2916,4.2898,4.2924,4.2996,4.2892,4.2891,4.2912,4.3068,4.3091,4.3105,4.2977,4.298,4.2981,4.3069,0,4.2865,4.2922,4.2901,4.296,4.2983,4.2946,4.2975,4.2978,4.297,4.2989,4.2979,4.3,4.2963,4.2967,4.2991,4.2982,4.3027,4.2975,4.3003,4.3004,4.3005,4.312,4.3144,4.3227,4.3079,4.3081,4.3083,0,4.2971,4.2984,4.3045,4.3042,4.3051,4.3078,4.3091,4.3109,4.3112,4.3104,4.3113,4.3089,4.312,4.3076,4.312,4.3085,4.3095,4.3093,4.3095,4.3098,4.3049,4.3127,4.3252,4.3265,4.31,4.3098,4.3097,0,4.3057,4.3089,4.313,4.3135,4.3132,4.3152,4.3152,4.3152,4.3163,4.3174,4.3181,4.3196,4.3204,4.3216,4.3196,4.3165,4.3244,4.3197,4.3239,4.3239,4.3258,4.3257,4.3388,4.3262,4.3262,4.3262,4.3261,0,4.3154,4.3194,4.3169,4.3194,4.3237,4.3212,4.3255,4.3251,4.3252,4.3276,4.3243,4.3266,4.3239,4.3259,4.3244,4.3284,4.3287,4.3282,4.3278,4.3286,4.3287,4.3293,4.3287,4.3265,4.3264,4.3264,4.3263,0,4.3258,4.3243,4.3285,4.328,4.328,4.3312,4.3307,4.333,4.332,4.3351,4.3356,4.3341,4.3363,4.3345,4.3366,4.3356,4.3409,4.3395,4.3408,4.3405,4.3448,4.3445,4.3589,4.3607,4.3468,4.347,4.3471,0,4.3322,4.3351,4.335,4.3364,4.3366,4.3389,4.3401,4.3377,4.3391,4.3397,4.342,4.3439,4.3454,4.3491,4.3481,4.3498,4.3486,4.3535,4.3488,4.3495,4.3488,4.3487,4.3491,4.3545,4.3546,4.3548,4.3549,0,4.3437,4.3428,4.3446,4.3463,4.3478,4.3489,4.3498,4.3511,4.3487,4.3504,4.3527,4.3539,4.3561,4.3581,4.3594,4.3593,4.3568,4.3564,4.3574,4.3583,4.359,4.3589,4.3436,4.3561,4.3559,4.3558,4.3558,4.3557,4.3523,4.3548,4.3552,4.3574,4.3578,4.3587,4.3609,4.3603,4.3622,4.3639,4.3624,4.3652,4.3654,4.367,4.3672,4.3694,4.3673,4.3688,4.3692,4.3697,4.3704,4.3586,4.3696,4.3695,4.3695,4.3695,4.3694,0,4.3638,4.3639,4.3659,4.3673,4.369,4.3665,4.3673,4.369,4.3715,4.372,4.3736,4.3763,4.3782,4.3774,4.3792,4.381,4.3799,4.3816,4.3815,4.3816,4.372,4.371,4.3825,4.3825,4.3825,4.3825,4.3825,4.3825,4.37,4.3742,4.3734,4.3777,4.3777,4.3805,4.3813,4.3821,4.3825,4.3857,4.3874,4.3869,4.3869,4.3886,4.3903,4.39,4.3909,4.393,4.3923,4.3835,4.3822,4.381,4.38,4.3932,4.3932,4.4017,4.4017,4.4018]}]]